Regional Weather Roundup
Issued by NWS Pendleton, OR

Home | Current Version | Previous Version | Text Only | Print | Product List | Glossary On
Versions: 1 2 3 4 5 6 7 8 9 10 11 12 13 14 15 16 17 18 19 20 21 22 23 24 25 26 27 28 29 30 31 32 33 34 35 36 37 38 39 40 41 42 43 44 45 46 47 48 49 50
000
ASUS46 KPDT 271910
RWRPDT
PENDLETON REGIONAL WEATHER ROUNDUP
NATIONAL WEATHER SERVICE PENDLETON OREGON
1200 PM PDT MON APR 27 2015

NOTE: FAIR INDICATES FEW OR NO CLOUDS BELOW 12,000 FEET WITH NO
SIGNIFICANT WEATHER AND/OR OBSTRUCTIONS TO VISIBILITY.

# INDICATES UNOFFICIAL STATION AND DATA

WAZ520-272010-
EAST SLOPES OF WASHINGTON CASCADES

CITY            SKY/WX      TMP DP  RH  WIND    PRES   REMARKS
#BULLFROG 2SW   N/A         62  41  46  CALM    27.83F
#BUMPING DAM    N/A         60  N/A N/A S1      N/A
#CLE ELUM HS    N/A         64  40  41  S3      30.19F
#CLE ELUM LAKE  N/A         60  45  58  CALM    30.22F
#CLIFFDEL 2NW   N/A         66  41  40  S2      N/A
#EASTON DOT     N/A         59  29  32  N6      N/A
#GLENWOOD       N/A         64  51  63  CALM    30.24F
#MANASTASH CYN  N/A         63  39  41  N3      30.22F
#NELSON         N/A         64  44  48  CALM    30.24F
#NELSON 3SW     N/A         59  42  53  CALM    30.46F
#NILE           N/A         64  40  41  S3      29.50F
#PEOH POINT     N/A         57  37  47  E3      N/A
#RONALD 2NW     N/A         60  44  55  E2      30.11F
#TEANAWAY 4NE   N/A         64  46  52  E1      N/A
#TROUT LAKE 1NE N/A         62  48  60  E5      30.23F
$$

WAZ521-272010-
SIMCOE HIGHLANDS

CITY            SKY/WX      TMP DP  RH  WIND    PRES   REMARKS
#BICKLETON HS   N/A         60  37  42  SW5     N/A
#SATUS PASS DOT N/A         62  39  43  SW2     N/A
#CENTERVILLE 4W N/A         65  51  60  S2      29.99F
#CENTERVILLE 1SWN/A         62  46  56  CALM    30.19F
#GOLDENDALE     N/A         63  46  54  SW2     N/A
#GOLDENDALE 1NE N/A         63  35  35  SE5     N/A
#GOLDENDALE 5WNWN/A         64  48  56  S3      30.22F
#GOODNOE HILLS  N/A         70  49  47  S8      N/A
#LYLE 6NE       N/A         64  50  60  CALM    30.21F
$$

WAZ026-272010-
KITTITAS VALLEY

CITY            SKY/WX      TMP DP  RH  WIND    PRES   REMARKS
ELLENSBURG AP   SUNNY       69  37  31  VRB5    30.26F
YTC-OPS AREA    SUNNY       59  31  34  NE13    30.27F
#ELLENSBURG CWU N/A         64  38  38  E7      30.20F
#ELLENSBURG 3NE N/A         64  40  41  S1      30.25F
#ELLENSBURG 1E  N/A         64  39  40  CALM    N/A
#KITTITAS 4N    N/A         69  42  37  CALM    28.57F
#KITTITAS 3S    N/A         64  43  46  CALM    30.23F
#THORP 6N       N/A         61  38  42  SE8     30.27S
$$

WAZ027-272010-
YAKIMA VALLEY

CITY            SKY/WX      TMP DP  RH  WIND    PRES   REMARKS
SUNNYSIDE AP    SUNNY       66  46  48  SE8     30.27F
YAKIMA AIRPORT  SUNNY       69  35  28  VRB6    30.27F
#DONALD 2NE     N/A         71  28  20  SE2     29.10F
#GRANDVIEW      N/A         67  45  45  S1      30.27F
#MABTON         N/A         66  48  52  E5      30.25F
#NACHES 2SW     N/A         65  41  41  E2      30.28S
#TERRACE HTS    N/A         67  40  37  S5      30.22F
#WAPATO 4NE     N/A         71  28  20  SE2     29.10F
#WEST VALLEY    N/A         66  38  36  CALM    30.24F
#W YAKIMA       N/A         66  39  37  E3      30.25F
#WHITE SWAN 5E  N/A         65  42  43  NE1     30.26F
$$

WAZ028-272010-
LOWER COLUMBIA BASIN...WASHINGTON

CITY            SKY/WX      TMP DP  RH  WIND    PRES   REMARKS
HANFORD         MOSUNNY     68  31  25  NE5     30.28F
PASCO           SUNNY       71  42  35  VRB7    30.29F
PROSSER AWOS    N/A         68  48  49  E2      30.29F
RICHLAND AWOS   SUNNY       70  43  38  E6      30.28F
#BASIN CITY 5SW N/A         67  47  49  E3      30.29F
#BENTON CITY    N/A         68  49  51  CALM    30.18F
#CONNELL 5N     N/A         66  41  40  N1      30.29F
#CONNELL 5NW    N/A         64  42  45  SW2     30.26F
#ELTOPIA        N/A         70  46  42  CALM    30.25F
#ELTOPIA 6NW    N/A         63  47  56  S5      29.26S
#KAHLOTUS       N/A         65  41  41  W3      30.30F
#KENNEWICK      N/A         62  41  46  CALM    27.83F
#KENNEWICK 3S   N/A         68  47  47  CALM    30.28F
#PATERSON       N/A         65  45  48  CALM    30.25F
#PROSSER DOT    N/A         67  45  45  S6      N/A
#PROSSER        N/A         67  43  42  SE2     30.26F
#SAGEMOOR 2W    N/A         65  47  52  CALM    30.14S
#TOUCHET 2S     N/A         68  49  51  NE2     30.27F
#WEST PASCO     N/A         70  48  46  NE1     30.34F
$$

WAZ029-272010-
FOOTHILLS OF THE BLUES...WASHINGTON

CITY            SKY/WX      TMP DP  RH  WIND    PRES   REMARKS
WALLA WALLA AP  SUNNY       68  31  25  VRB5    30.28F
#DAYTON SCHOOL  N/A         65  25  22  N3      30.29F
#LOWDEN 2SE     N/A         70  43  38  NE1     30.24F
#PLEASANT VIEW 1N/A         63  37  38  N3      30.34F
#PRESCOTT       N/A         67  38  34  SW1     30.29F
#SUDBURY        N/A         45  N/A N/A CALM    N/A
#WHITMAN COLLEGEN/A         66  35  32  N5      30.32F
#WAITSBURG 5S   N/A         63  39  41  N2      30.38F
#WAITSBURG 8N   N/A         73  21  14  E3      30.12S
#WALLA WALLA 5E N/A         68  38  33  E3      N/A
#WALLA WALLA U  N/A         68  35  29  CALM    30.27F
#WHITMAN MISSIONN/A         69  39  33  CALM    30.29F
$$

WAZ030-272010-
BLUE MOUNTAINS...WASHINGTON

CITY            SKY/WX      TMP DP  RH  WIND    PRES   REMARKS
#DIXIE 5SE      N/A         57  30  35  N6      30.24S
$$

ORZ009-041-WAZ024-272010-
COLUMBIA RIVER GORGE

CITY            SKY/WX      TMP DP  RH  WIND    PRES   REMARKS
HOOD RIVER AP   SUNNY       66  48  52  N6      30.23F
THE DALLES AP   SUNNY       72  45  38  NE10    30.22F
#ARLINGTON AIRPON/A         67  49  52  E6      N/A
#ARLINGTON HS   N/A         67  47  49  E5      30.15F
#CELILO DOT     N/A         69  48  47  NE2     N/A
#MARYHILL       N/A         67  47  49  E1      N/A
#MOSIER 1S      N/A         69  40  35  E6      30.21F
#MURDOCK        N/A         71  51  49  NE3     30.23F
#RUFUS DOT      N/A         67  47  49  NE3     N/A

$$

ORZ510-272010-
NORTH CENTRAL OREGON

CITY            SKY/WX      TMP DP  RH  WIND    PRES   REMARKS
#CHENOWITH 1W   N/A         62  48  60  E8      N/A
#COW CYN RST AREN/A         61  52  72  SE7     N/A
#DUFUR 9E       N/A         62  45  54  E6      30.28F
#GRASS VALLEY 1SN/A         69  46  44  S7      30.21F
#KENT DOT       N/A         64  37  37  E8      N/A
#MAUPIN SCHOOL  N/A         69  44  40  SE1     30.23F
#MORO SCHOOL    N/A         67  51  56  NE1     30.24F
#SHANIKO 5WSW   N/A         60  37  42  E8      N/A
#SHANIKO 4NW    N/A         65  40  40  SE9     30.26F
#TYGH VALLEY 2NEN/A         67  46  47  CALM    30.22F
#WAPANITIA AIRPON/A         65  45  48  NE2     30.23F
#WASCO DOT      N/A         67  46  47  NW3     N/A
#WASCO 5NE      N/A         64  49  58  NE3     30.24F
$$

ORZ511-272010-
CENTRAL OREGON

CITY            SKY/WX      TMP DP  RH  WIND    PRES   REMARKS
BEND AIRPORT    SUNNY       63  37  38  E7      30.22F
MADRAS AIRPORT  SUNNY       63  41  44  CALM    30.25F
PRINEVILLE AP   SUNNY       64  37  37  E8      30.24F
REDMOND AIRPORT SUNNY       67  38  34  E8      30.23F
#BEND 1SW       N/A         66  41  40  SE3     N/A
#BEND-AWBREY    N/A         65  43  45  CALM    30.21F
#BEND-KIM LN    N/A         65  42  43  E5      30.21F
#CROOKED RVR RANN/A         69  43  39  S3      30.20F
#CULVER         N/A         65  41  41  NE5     30.19F
#LAKE BILLY CHINN/A         66   6   9  N3      30.23F
#POWELL BUTTE 3EN/A         62  37  39  SE7     N/A
#POWELL BUTTE   N/A         67  42  40  SE6     29.84F
#PRINEVILLE 3N  N/A         65  43  45  E5      30.17F
#WARM SPRINGS   N/A         69  46  44  N1      30.19F

$$


ORZ509-272010-
EAST SLOPES OF OREGON CASCADES

CITY            SKY/WX      TMP DP  RH  WIND    PRES   REMARKS
#BLUE BOX PASS  N/A         58   4  11  CALM    N/A
#CAMP SHERMAN   N/A         70  44  39  CALM    30.19F
#LA PINE 4NW    N/A         62  42  48  CALM    30.27F
#SISTERS AIRPOR N/A         63  48  58  N8      30.17S
#SISTERS ODOT   N/A         63  N/A N/A NE2     N/A
#SISTERS 3N     N/A         65  45  48  N6      30.25S
#SUNRIVER       N/A         63  43  48  SW1     30.11F
#TUMALO 3W      N/A         63  41  44  SE5     30.09F
#WANOGA BUTTE D N/A         54  37  52  SE7     N/A

$$

ORZ044-272010-
LOWER COLUMBIA BASIN...OREGON

CITY            SKY/WX      TMP DP  RH  WIND    PRES   REMARKS
HERMISTON       SUNNY       69  40  35  N6      30.26F
#BOARDMAN 8SW   N/A         68  47  47  N3      30.24F
#IONE SCHOOL    N/A         67  44  43  N1      30.21F
#IRRIGON 4NW    N/A         66  44  45  N3      N/A
#UMATILLA SCHOOLN/A         70  50  49  N1      30.29S
#UMATILLA       N/A         68  45  44  N3      30.19F
$$

ORZ507-272010-
NORTHERN FOOTHILLS OF THE BLUES

CITY            SKY/WX      TMP DP  RH  WIND    PRES   REMARKS
PENDLETON AIRPT SUNNY       68  33  27  VRB3    30.26F
#ADAMS 3WNW     N/A         66  40  38  NW3     30.27F
#CAYUSE         N/A         65  37  35  N3      30.26F
#HELIX SCHOOL   N/A         65  33  30  CALM    30.28F
#HELIX 3N       N/A         63  36  36  N10     30.24S
#HELIX 6SW      N/A         65  37  35  SW1     30.26F
#HOLDMAN 6E     N/A         67  35  30  S2      30.08F
#M-F FERNDALE   N/A         73  38  28  CALM    30.25F
#M-F GROVE ELEM N/A         66  34  30  CALM    30.26F
#M-FREEWATER 5SEN/A         66  39  37  NW7     30.27F
#PENDLETON DNTN N/A         72  37  28  E2      30.25F
#PDT AQUATIC CTRN/A         67  38  34  NE2     30.24F
#PENDLETON 5NE  N/A         68  40  36  CALM    30.22F
#PDT SUNRIDGE   N/A         68  36  31  CALM    30.27F
#PENDLETON 7NW  N/A         68  41  37  CALM    30.24F
#PILOT ROCK     N/A         68  38  33  CALM    30.27F
#TUTUILLA       N/A         67  38  34  NE3     30.27F
#UMAPINE 2E     N/A         69  39  33  N1      30.25F
#WESTON SCHOOL  N/A         63  30  29  NE3     30.25F

$$

ORZ508-272010-
SOUTHERN FOOTHILLS OF THE BLUES

CITY            SKY/WX      TMP DP  RH  WIND    PRES   REMARKS
LEXINGTON       SUNNY       68  39  35  N9      30.27F
#AJAX           N/A         66  38  36  NE5     30.16F
#CONDON SCHOOL  N/A         64  43  46  CALM    30.20F
#CONDON 5W      N/A         60  38  44  E7      30.23F
#FOSSIL SCHOOL  N/A         65  39  38  S2      30.21F
#HEPPNER EOC    N/A         69  39  33  CALM    30.18F
#HEPPNER 4NE    N/A         63  40  43  NE5     30.25F
#LEXINGTON 2SE  N/A         68  42  39  NE3     30.23F
#MIKKALO        N/A         68  41  37  CALM    30.24F
#RUGGS 5NE      N/A         69  39  33  N3      30.43F
#RUGGS 2SW      N/A         64  37  37  CALM    30.26F

$$

ORZ502-503-272010-
BLUE MOUNTAINS

CITY            SKY/WX      TMP DP  RH  WIND    PRES   REMARKS
MEACHAM         SUNNY       60  28  29  NE5     30.29F
#BATTLE MTN DOT N/A         56  39  53  CALM    N/A
#HEPPNER 15SE   N/A         61  42  50  NW2     30.20F
#LADD CYN SMT   N/A         55  27  34  NW8     N/A
#LADD CREEK ODOTN/A         53  34  48  NE6     N/A
#LONG CREEK HS  N/A         57  37  47  CALM    30.24F
#N POWDER DOT   N/A         60  31  33  CALM    N/A
#PIKES PEAK     N/A         56  36  47  N5      27.99S
#TOLLGATE       N/A         52  28  39  N1      30.20F
#TROY SCHOOL    N/A         67  35  30  SE3     30.16F
#UKIAH          N/A         59  37  44  CALM    30.35F
#WESTON 4E      N/A         60  34  37  S1      30.25F
$$

ORZ505-272010-
JOHN DAY BASIN

CITY            SKY/WX      TMP DP  RH  WIND    PRES   REMARKS
JOHN DAY        SUNNY       61  34  36  W3      30.28F
#JOHN DAY KJDY  N/A         64  29  27  CALM    30.32R
#DAYVILLE SCHOOLN/A         62  33  34  E1      30.22F
#MITCHELL       N/A         64  44  48  CALM    30.36F
#MONUMENT HS    N/A         64  33  31  NW1     30.26F
#MT. VERNON 5SE N/A         59  36  42  NE1     30.24F
#WINLOCK        N/A         65  37  35  NE6     30.34F
$$

ORZ506-272010-
OCHOCO AND JOHN DAY HIGHLANDS

CITY            SKY/WX      TMP DP  RH  WIND    PRES   REMARKS
#BUCK CREEK DOT N/A         60  60  100 E10     N/A
#HORSE RIDGE DO N/A         62  35  36  SE13    N/A
#KEYES SMT DOT  N/A         57  37  47  E6      N/A
#PAULINA SCHOOL N/A         39  33  79  NE2     30.24F
#PINE MTN OBS   N/A         51  36  56  SE8     N/A
#PRAIRIE CITY   N/A         61  34  36  SW2     30.21F
#SENECA         N/A         57  N/A N/A N5      N/A
#SENECA 9NW     N/A         57  34  42  CALM    30.32F
$$

ORZ049-272010-
GRANDE RONDE VALLEY

CITY            SKY/WX      TMP DP  RH  WIND    PRES   REMARKS
LA GRANDE       SUNNY       57  28  33  N5      30.31F
#COVE SCHOOL    N/A         58  30  34  CALM    30.26F
#ELGIN 3N       N/A         61  22  22  E3      30.26F
#ELGIN 1E       N/A         58  30  34  CALM    N/A
#IMBLER SCHOOL  N/A         57  28  33  NE3     30.25F
#ISLAND CITY 4N N/A         65  57  75  CALM    30.14F
#LADD CYN DOT   N/A         56  35  45  NE2     N/A
#LA GRANDE ELEM N/A         57  31  37  E2      30.30F
#UNION 1S       N/A         57  34  42  CALM    30.25F
$$

ORZ050-272010-
WALLOWA COUNTY

CITY            SKY/WX      TMP DP  RH  WIND    PRES   REMARKS
#ENTERPRISE HS  N/A         59  24  26  E1      30.29F
#IMNAHA SCHOOL  N/A         62  28  27  N7      30.27F
#JOSEPH 3N      N/A         57  33  40  N5      30.29F
#JOSEPH 3W      N/A         55  14  19  CALM    30.12F
#LOSTINE        N/A         60  27  28  CALM    30.14F
#MT HOWARD 8000 N/A         41  21  44  NW1     30.35F
#PROMISE 1S     N/A         55  30  38  S3      30.42F
#SHEEP RDG 7000 N/A         41  19  41  CALM    30.41F
#WALLOWA SCHOOL N/A         60  19  20  CALM    31.28F



$$



USA.gov is the U.S. government's official web portal to all federal, state and local government web resources and services.